Radiation Dose measured at exhaust stack monitor of Fukushima Daiichi Nuclear Power Station
Date,Time,Unit 5 6 shared exhaust cylinders,Wind Direction,Wind Velocity(m/s)
2021/08/25,00:00,4.0,south,1.7
2021/08/25,00:10,3.9,south-southwest,2.6
2021/08/25,00:20,3.7,south,3.4
2021/08/25,00:30,3.9,south,3.4
2021/08/25,00:40,3.9,south,3.2
2021/08/25,00:50,3.9,south-southeast,1.9
2021/08/25,01:00,4.0,south,2.6
2021/08/25,01:10,3.9,south,3.1
2021/08/25,01:20,3.8,south,3.7
2021/08/25,01:30,3.9,south,4.3
2021/08/25,01:40,3.8,south-southeast,3.0
2021/08/25,01:50,3.7,southeast,1.9
2021/08/25,02:00,3.8,south-southeast,1.2
2021/08/25,02:10,4.1,south,1.1
2021/08/25,02:20,3.9,south,1.2
2021/08/25,02:30,3.8,south,2.0
2021/08/25,02:40,3.9,south-southeast,2.8
2021/08/25,02:50,3.8,south-southeast,2.3
2021/08/25,03:00,4.0,south,2.8
2021/08/25,03:10,3.9,south,3.6
2021/08/25,03:20,4.0,south,3.5
2021/08/25,03:30,3.8,south,2.6
2021/08/25,03:40,3.8,south,2.3
2021/08/25,03:50,3.9,south-southeast,2.2
2021/08/25,04:00,3.8,south,2.8
2021/08/25,04:10,3.8,south,3.3
2021/08/25,04:20,3.8,south,3.8
2021/08/25,04:30,3.9,south,5.3
2021/08/25,04:40,3.9,south,5.4
2021/08/25,04:50,3.8,south,5.9
2021/08/25,05:00,4.0,south,5.1
2021/08/25,05:10,3.9,south-southwest,5.2
2021/08/25,05:20,3.7,south,5.2
2021/08/25,05:30,4.0,south,4.2
2021/08/25,05:40,3.7,south,4.1
2021/08/25,05:50,3.8,south,2.9
2021/08/25,06:00,4.0,south-southwest,3.1
2021/08/25,06:10,3.8,south-southwest,3.7
2021/08/25,06:20,3.9,south-southwest,3.1
2021/08/25,06:30,3.9,south-southwest,2.0
2021/08/25,06:40,3.8,southwest,2.2
2021/08/25,06:50,3.9,south-southwest,2.5
2021/08/25,07:00,3.9,southwest,2.3
2021/08/25,07:10,4.0,southwest,2.3
2021/08/25,07:20,3.9,south-southwest,2.8
2021/08/25,07:30,3.8,south-southeast,3.3
2021/08/25,07:40,4.0,south-southeast,1.9
2021/08/25,07:50,3.8,south,2.5
2021/08/25,08:00,4.0,south,4.9
2021/08/25,08:10,3.9,south,4.0
2021/08/25,08:20,3.9,south,2.2
2021/08/25,08:30,3.8,south,1.2
2021/08/25,08:40,3.8,south-southeast,1.4
2021/08/25,08:50,3.9,northwest,1.5
2021/08/25,09:00,4.0,south-southeast,2.5
2021/08/25,09:10,3.8,south-southeast,5.8
2021/08/25,09:20,3.8,south-southeast,5.9
2021/08/25,09:30,3.9,south-southeast,6.4
2021/08/25,09:40,3.9,south-southeast,5.2
2021/08/25,09:50,3.8,south-southeast,5.3
2021/08/25,10:00,3.9,south-southeast,5.7
2021/08/25,10:10,3.8,south,5.7
2021/08/25,10:20,3.8,south-southwest,5.3
2021/08/25,10:30,3.9,south,4.3
2021/08/25,10:40,4.0,south,4.4
2021/08/25,10:50,3.8,south-southwest,3.7
2021/08/25,11:00,4.0,south-southwest,4.2
2021/08/25,11:10,4.1,south,3.6
2021/08/25,11:20,3.8,south-southeast,4.4
2021/08/25,11:30,3.8,south,5.2
2021/08/25,11:40,4.0,south,5.3
2021/08/25,11:50,3.7,south,5.9
2021/08/25,12:00,3.9,south,5.3
2021/08/25,12:10,3.7,south,3.9
2021/08/25,12:20,3.8,south-southeast,2.0
2021/08/25,12:30,4.0,south-southeast,3.7
2021/08/25,12:40,3.9,south-southeast,4.0
2021/08/25,12:50,3.9,south-southeast,4.6
2021/08/25,13:00,4.0,south,4.1
2021/08/25,13:10,3.9,south,3.6
2021/08/25,13:20,3.8,south,3.8
2021/08/25,13:30,4.0,south,4.2
2021/08/25,13:40,3.8,south,3.4
2021/08/25,13:50,3.9,south,3.0
2021/08/25,14:00,3.8,south,4.7
2021/08/25,14:10,3.9,south,4.7
2021/08/25,14:20,3.8,south,4.1
2021/08/25,14:30,4.0,south,4.0
2021/08/25,14:40,3.7,south-southwest,3.3
2021/08/25,14:50,3.9,south-southwest,2.3
2021/08/25,15:00,3.8,south-southwest,2.3
2021/08/25,15:10,3.9,south-southwest,3.9
2021/08/25,15:20,3.7,south,4.3
2021/08/25,15:30,3.9,southwest,3.8
2021/08/25,15:40,3.8,southwest,3.2
2021/08/25,15:50,3.9,west-southwest,1.9
2021/08/25,16:00,3.8,southwest,0.9
2021/08/25,16:10,4.0,south-southwest,1.5
2021/08/25,16:20,3.8,west-southwest,2.3
2021/08/25,16:30,4.0,west-southwest,3.5
2021/08/25,16:40,3.9,west-southwest,3.7
2021/08/25,16:50,3.9,west,4.5
2021/08/25,17:00,3.9,west,2.3
2021/08/25,17:10,3.9,west,2.6
2021/08/25,17:20,3.9,west,3.3
2021/08/25,17:30,3.9,west,2.9
2021/08/25,17:40,3.7,west-southwest,2.9
2021/08/25,17:50,3.9,west-southwest,1.9
2021/08/25,18:00,3.9,southwest,1.5
2021/08/25,18:10,3.8,southwest,1.7
2021/08/25,18:20,3.8,west-southwest,2.8
2021/08/25,18:30,3.8,west-southwest,3.9
2021/08/25,18:40,3.9,west-southwest,4.3
2021/08/25,18:50,3.8,west,3.8
2021/08/25,19:00,3.7,west,4.1
2021/08/25,19:10,3.9,west-southwest,4.2
2021/08/25,19:20,4.0,west-southwest,3.8
2021/08/25,19:30,3.9,west,5.6
2021/08/25,19:40,3.9,west,5.2
2021/08/25,19:50,4.0,west,5.0
2021/08/25,20:00,3.8,west,4.0
2021/08/25,20:10,4.0,west-northwest,3.6
2021/08/25,20:20,3.7,west,2.5
2021/08/25,20:30,3.7,west,2.3
2021/08/25,20:40,3.9,west,2.8
2021/08/25,20:50,3.9,west-northwest,2.3
2021/08/25,21:00,3.7,west,1.9
2021/08/25,21:10,4.1,west-southwest,0.8
2021/08/25,21:20,3.7,-,CALM
2021/08/25,21:30,3.7,northwest,1.2
2021/08/25,21:40,3.8,west,1.2
2021/08/25,21:50,3.9,west-southwest,3.5
2021/08/25,22:00,3.9,west-southwest,3.4
2021/08/25,22:10,3.9,west-southwest,4.9
2021/08/25,22:20,3.7,west-southwest,3.7
2021/08/25,22:30,3.9,west,1.1
2021/08/25,22:40,3.9,west,4.0
2021/08/25,22:50,3.9,west-northwest,2.2
2021/08/25,23:00,3.8,northwest,4.8
2021/08/25,23:10,3.9,northwest,4.7
2021/08/25,23:20,3.9,northwest,3.0
2021/08/25,23:30,3.9,northeast,2.2
2021/08/25,23:40,3.8,east-northeast,2.2
2021/08/25,23:50,3.9,northeast,1.5
